Simultaneous Nadir Overpasses (SNOs) Predictions

Prediction of SNOs between AQUA and METOP-A Satellite Orbit:

Table of predicted SNOs for the next 14.0 days since TLE Epoch: 7/25/2014
Index Date (AQUA) Time (AQUA) Lat,Lon (AQUA) SZA (AQUA ) Date (METOP-A) Time (METOP-A) Lat,Lon (METOP-A) SZA (METOP-A ) Distance(km) Time Diff (sec)
1 07/26/2014 03:21:50 73.84, 123.82 54.44 07/26/2014 03:21:12 73.83, 123.93 54.44 3.43 38
2 07/26/2014 04:11:16 -73.86, -68.60 125.53 07/26/2014 04:11:53 -73.89, -68.61 125.51 2.87 37
3 07/28/2014 22:56:06 73.81,-169.70 55.05 07/28/2014 22:55:36 73.82,-169.69 55.06 1.18 30
4 07/28/2014 23:45:33 -73.89, -2.22 124.87 07/28/2014 23:46:17 -73.88, -2.22 124.88 0.54 44
5 07/31/2014 17:40:42 -73.09, 90.60 125.06 07/31/2014 17:39:37 -73.04, 87.61 124.96 97.15 65
6 07/31/2014 18:30:23 73.80,-103.24 55.71 07/31/2014 18:30:01 73.81,-103.32 55.73 2.84 22
7 07/31/2014 19:19:50 -73.87, 64.24 124.21 07/31/2014 19:20:42 -73.87, 64.16 124.21 2.71 52
8 08/03/2014 13:15:05 -73.40, 156.40 124.01 08/03/2014 13:13:56 -73.33, 154.64 123.99 56.77 69
9 08/03/2014 14:04:41 73.84, -36.92 56.48 08/03/2014 14:04:25 73.84, -36.84 56.48 2.40 16
10 08/03/2014 14:54:08 -73.91, 130.57 123.44 08/03/2014 14:55:06 -73.91, 130.64 123.46 2.34 58
11 08/06/2014 08:49:26 -73.66,-137.73 122.97 08/06/2014 08:48:14 -73.61,-138.32 122.99 19.61 72
12 08/06/2014 09:38:56 73.80, 29.61 57.19 08/06/2014 09:38:49 73.82, 29.51 57.21 3.66 7
13 08/06/2014 10:28:24 -73.92,-163.00 122.68 08/06/2014 10:29:30 -73.89,-163.00 122.72 3.42 66




NCC Satellite Simultaneous Nadir Overpasses (SNOs) Prediction Service
